timestamp,wind_dir_avg,wind_spd_avg,wind_spd_max_dir,wind_spd_gust,battery_voltage,lat,long
2021-11-05 00:04:00+00:00,298.0,4.94,288.0,5.82,12.57,47.59359,-54.27349
2021-11-05 00:14:01+00:00,292.0,5.13,294.0,5.85,12.57,47.59359,-54.27349
2021-11-05 00:24:01+00:00,293.0,4.83,297.0,5.51,12.57,47.59359,-54.27349
2021-11-05 00:34:01+00:00,291.0,4.35,288.0,5.76,12.57,47.59359,-54.27349
2021-11-05 00:44:01+00:00,282.0,3.87,277.0,5.95,12.57,47.59359,-54.27349
2021-11-05 00:54:01+00:00,294.0,4.03,288.0,6.38,12.57,47.59359,-54.27349
2021-11-05 01:04:01+00:00,303.0,4.36,292.0,6.19,12.57,47.59359,-54.27349
2021-11-05 01:14:00+00:00,301.0,4.4,288.0,6.63,12.57,47.59359,-54.27349
2021-11-05 01:24:00+00:00,286.0,4.32,277.0,5.71,12.57,47.59359,-54.27349
2021-11-05 01:34:00+00:00,270.0,3.47,270.0,5.85,12.57,47.59359,-54.27349
2021-11-05 01:44:00+00:00,275.0,5.67,275.0,6.56,12.57,47.59359,-54.27349
2021-11-05 01:54:00+00:00,271.0,4.7,267.0,5.21,12.57,47.59359,-54.27349
2021-11-05 02:04:00+00:00,292.0,4.62,294.0,5.37,12.57,47.59359,-54.27349
2021-11-05 02:14:01+00:00,289.0,4.32,288.0,5.21,12.57,47.59359,-54.27349
2021-11-05 02:24:01+00:00,289.0,4.14,283.0,6.32,12.57,47.59359,-54.27349
2021-11-05 02:34:01+00:00,295.0,3.76,294.0,4.81,12.57,47.59359,-54.27349
2021-11-05 02:44:01+00:00,280.0,4.09,273.0,6.54,12.57,47.59359,-54.27349
2021-11-05 02:54:01+00:00,297.0,4.58,289.0,6.4,12.57,47.59359,-54.27349
2021-11-05 03:04:01+00:00,300.0,4.14,296.0,4.86,12.57,47.59359,-54.27349
2021-11-05 03:14:00+00:00,283.0,4.25,286.0,4.99,12.49,47.59359,-54.27349
2021-11-05 03:24:00+00:00,281.0,3.57,271.0,5.11,12.49,47.59359,-54.27349
2021-11-05 03:34:00+00:00,292.0,4.79,290.0,6.78,12.49,47.59359,-54.27349
2021-11-05 03:44:00+00:00,290.0,4.25,281.0,6.58,12.49,47.59359,-54.27349
2021-11-05 03:54:00+00:00,291.0,4.14,295.0,5.04,12.49,47.59359,-54.27349
2021-11-05 04:04:00+00:00,296.0,4.78,289.0,6.23,12.49,47.59359,-54.27349
2021-11-05 04:14:00+00:00,283.0,5.53,284.0,6.13,12.49,47.59359,-54.27349
2021-11-05 04:24:00+00:00,265.0,4.64,266.0,5.34,12.49,47.59359,-54.27349
2021-11-05 04:34:00+00:00,272.0,5.13,276.0,5.69,12.49,47.59359,-54.27349
2021-11-05 04:44:00+00:00,270.0,4.92,272.0,5.78,12.49,47.59359,-54.27349
2021-11-05 04:54:00+00:00,278.0,4.16,279.0,4.79,12.49,47.59359,-54.27349
2021-11-05 05:04:00+00:00,274.0,3.88,274.0,5.06,12.49,47.59359,-54.27349
2021-11-05 05:14:00+00:00,282.0,4.43,286.0,5.29,12.49,47.59359,-54.27349
2021-11-05 05:24:00+00:00,281.0,4.32,268.0,5.36,12.49,47.59359,-54.27349
2021-11-05 05:34:00+00:00,280.0,4.28,280.0,5.1,12.49,47.59359,-54.27349
2021-11-05 05:44:00+00:00,290.0,4.31,283.0,5.9,12.49,47.59359,-54.27349
2021-11-05 05:54:00+00:00,299.0,5.23,303.0,5.86,12.49,47.59359,-54.27349
2021-11-05 06:04:00+00:00,294.0,5.22,297.0,5.9,12.49,47.59359,-54.27349
2021-11-05 06:14:00+00:00,286.0,4.69,287.0,5.1,12.41,47.59359,-54.27349
2021-11-05 06:24:00+00:00,283.0,4.78,280.0,5.42,12.41,47.59359,-54.27349
2021-11-05 06:34:00+00:00,275.0,4.61,278.0,5.22,12.41,47.59359,-54.27349
2021-11-05 06:44:00+00:00,282.0,5.17,284.0,5.72,12.41,47.59359,-54.27349
2021-11-05 06:54:00+00:00,291.0,5.49,298.0,6.27,12.41,47.59359,-54.27349
2021-11-05 07:04:00+00:00,295.0,4.16,297.0,4.75,12.41,47.59359,-54.27349
2021-11-05 07:14:00+00:00,281.0,4.57,279.0,5.02,12.41,47.59359,-54.27349
2021-11-05 07:24:00+00:00,280.0,3.73,278.0,5.32,12.41,47.59359,-54.27349
2021-11-05 07:34:00+00:00,280.0,5.16,278.0,5.81,12.41,47.59359,-54.27349
2021-11-05 07:44:00+00:00,277.0,4.36,275.0,5.29,12.41,47.59359,-54.27349
2021-11-05 07:54:00+00:00,287.0,6.93,290.0,7.51,12.41,47.59359,-54.27349
2021-11-05 08:04:00+00:00,285.0,7.08,288.0,7.68,12.41,47.59359,-54.27349
2021-11-05 08:14:01+00:00,293.0,6.12,290.0,6.61,12.41,47.59359,-54.27349
2021-11-05 08:24:01+00:00,302.0,5.1,297.0,6.17,12.41,47.59359,-54.27349
2021-11-05 08:34:01+00:00,300.0,4.92,304.0,5.85,12.41,47.59359,-54.27349
2021-11-05 08:44:01+00:00,296.0,5.48,300.0,6.07,12.41,47.59359,-54.27349
2021-11-05 08:54:01+00:00,296.0,4.25,288.0,4.89,12.41,47.59359,-54.27349
2021-11-05 09:04:01+00:00,289.0,4.3,290.0,4.9,12.41,47.59359,-54.27349
2021-11-05 09:14:00+00:00,287.0,4.17,287.0,4.8,12.41,47.59359,-54.27349
2021-11-05 09:24:00+00:00,275.0,3.33,272.0,4.31,12.41,47.59359,-54.27349
2021-11-05 09:34:00+00:00,279.0,4.66,283.0,5.22,12.41,47.59359,-54.27349
2021-11-05 09:44:00+00:00,290.0,3.61,280.0,5.84,12.41,47.59359,-54.27349
2021-11-05 09:54:00+00:00,298.0,3.5,285.0,6.36,12.41,47.59359,-54.27349
2021-11-05 10:04:00+00:00,288.0,4.02,289.0,4.75,12.41,47.59359,-54.27349
2021-11-05 10:14:00+00:00,285.0,3.15,272.0,5.74,12.41,47.59359,-54.27349
2021-11-05 10:24:00+00:00,291.0,3.03,281.0,5.24,12.41,47.59359,-54.27349
2021-11-05 10:34:00+00:00,273.0,3.26,282.0,3.7,12.41,47.59359,-54.27349
2021-11-05 10:44:00+00:00,281.0,2.39,276.0,3.74,12.41,47.59359,-54.27349
2021-11-05 10:54:00+00:00,285.0,2.91,279.0,3.64,12.41,47.59359,-54.27349
2021-11-05 11:04:00+00:00,273.0,1.98,272.0,3.19,12.41,47.59359,-54.27349
2021-11-05 11:14:01+00:00,272.0,2.32,276.0,4.24,12.65,47.59359,-54.27349
2021-11-05 11:24:01+00:00,252.0,2.31,265.0,3.24,12.65,47.59359,-54.27349
2021-11-05 11:34:01+00:00,264.0,2.04,271.0,4.8,12.65,47.59359,-54.27349
2021-11-05 11:44:01+00:00,258.0,2.77,261.0,3.53,12.65,47.59359,-54.27349
2021-11-05 11:54:01+00:00,263.0,1.84,272.0,2.37,12.65,47.59359,-54.27349
2021-11-05 12:04:01+00:00,280.0,1.82,276.0,2.44,12.65,47.59359,-54.27349
2021-11-05 12:14:01+00:00,327.0,1.36,318.0,1.8,13.68,47.59359,-54.27349
2021-11-05 12:24:01+00:00,340.0,1.47,340.0,1.98,13.68,47.59359,-54.27349
2021-11-05 12:34:01+00:00,277.0,1.45,272.0,2.24,13.68,47.59359,-54.27349
2021-11-05 12:44:01+00:00,337.0,1.69,322.0,2.14,13.68,47.59359,-54.27349
2021-11-05 12:54:01+00:00,318.0,1.28,320.0,1.56,13.68,47.59359,-54.27349
2021-11-05 13:04:01+00:00,340.0,1.47,355.0,1.93,13.68,47.59359,-54.27349
2021-11-05 13:14:01+00:00,308.0,1.48,314.0,1.84,13.68,47.59359,-54.27349
2021-11-05 13:24:01+00:00,277.0,1.29,267.0,1.61,13.68,47.59359,-54.27349
2021-11-05 13:34:01+00:00,304.0,2.18,295.0,2.9,13.68,47.59359,-54.27349
2021-11-05 13:44:01+00:00,273.0,1.97,277.0,2.58,13.68,47.59359,-54.27349
2021-11-05 13:54:01+00:00,306.0,1.68,284.0,3.81,13.68,47.59359,-54.27349
2021-11-05 14:04:01+00:00,329.0,2.3,333.0,2.7,13.68,47.59359,-54.27349
2021-11-05 14:14:01+00:00,331.0,2.03,336.0,2.37,13.84,47.59359,-54.27349
2021-11-05 14:24:01+00:00,327.0,2.17,328.0,2.5,13.84,47.59359,-54.27349
2021-11-05 14:34:01+00:00,342.0,3.13,341.0,3.68,13.84,47.59359,-54.27349
2021-11-05 14:44:01+00:00,334.0,2.07,326.0,2.61,13.84,47.59359,-54.27349
2021-11-05 14:54:01+00:00,349.0,3.5,353.0,4.15,13.84,47.59359,-54.27349
2021-11-05 15:04:01+00:00,339.0,3.25,338.0,3.56,13.84,47.59359,-54.27349
2021-11-05 15:14:01+00:00,7.0,1.96,6.0,2.6,13.84,47.59359,-54.27349
2021-11-05 15:24:01+00:00,358.0,0.93,344.0,1.39,13.84,47.59359,-54.27349
2021-11-05 15:34:01+00:00,352.0,0.97,6.0,1.51,13.84,47.59359,-54.27349
2021-11-05 15:44:01+00:00,16.0,0.97,34.0,1.43,13.84,47.59359,-54.27349
2021-11-05 15:54:01+00:00,135.0,0.31,146.0,0.56,13.84,47.59359,-54.27349
2021-11-05 16:04:01+00:00,141.0,0.93,145.0,1.22,13.84,47.59359,-54.27349
2021-11-05 16:14:01+00:00,138.0,1.03,141.0,1.63,13.76,47.59359,-54.27349
2021-11-05 16:24:01+00:00,56.0,0.03,46.0,0.18,13.76,47.59359,-54.27349
2021-11-05 16:34:01+00:00,120.0,0.9,129.0,1.31,13.76,47.59359,-54.27349
2021-11-05 16:44:01+00:00,123.0,1.5,108.0,3.71,13.76,47.59359,-54.27349
2021-11-05 16:54:01+00:00,120.0,0.88,108.0,1.3,13.76,47.59359,-54.27349
2021-11-05 17:04:01+00:00,339.0,0.45,333.0,0.69,13.76,47.59359,-54.27349
2021-11-05 17:14:01+00:00,6.0,0.38,12.0,0.88,13.68,47.59359,-54.27349
2021-11-05 17:24:01+00:00,88.0,1.06,86.0,2.59,13.68,47.59359,-54.27349
2021-11-05 17:34:01+00:00,84.0,0.67,80.0,0.87,13.68,47.59359,-54.27349
2021-11-05 17:44:01+00:00,102.0,2.33,94.0,5.05,13.68,47.59359,-54.27349
2021-11-05 17:54:01+00:00,51.0,0.96,56.0,1.8,13.68,47.59359,-54.27349
2021-11-05 18:04:01+00:00,69.0,1.12,76.0,1.62,13.68,47.59359,-54.27349
2021-11-05 18:14:01+00:00,91.0,1.94,92.0,4.96,13.44,47.59359,-54.27349
2021-11-05 18:24:01+00:00,92.0,4.64,92.0,5.62,13.44,47.59359,-54.27349
2021-11-05 18:34:01+00:00,93.0,5.1,85.0,6.44,13.44,47.59359,-54.27349
2021-11-05 18:44:01+00:00,87.0,1.83,85.0,5.47,13.44,47.59359,-54.27349
2021-11-05 18:54:01+00:00,88.0,5.5,86.0,6.49,13.44,47.59359,-54.27349
2021-11-05 19:04:01+00:00,80.0,6.14,86.0,6.69,13.44,47.59359,-54.27349
2021-11-05 19:14:01+00:00,82.0,5.98,80.0,6.8,13.13,47.59359,-54.27349
2021-11-05 19:24:01+00:00,86.0,5.5,88.0,6.34,13.13,47.59359,-54.27349
2021-11-05 19:34:01+00:00,88.0,5.72,86.0,6.18,13.13,47.59359,-54.27349
2021-11-05 19:44:01+00:00,86.0,5.43,85.0,6.51,13.13,47.59359,-54.27349
2021-11-05 19:54:01+00:00,93.0,4.69,108.0,6.43,13.13,47.59359,-54.27349
2021-11-05 20:04:01+00:00,96.0,5.71,108.0,6.69,13.13,47.59359,-54.27349
2021-11-05 20:14:01+00:00,91.0,4.6,93.0,6.52,12.73,47.59359,-54.27349
2021-11-05 20:24:01+00:00,89.0,1.93,85.0,5.88,12.73,47.59359,-54.27349
2021-11-05 20:34:01+00:00,90.0,5.35,85.0,6.28,12.73,47.59359,-54.27349
2021-11-05 20:44:01+00:00,86.0,5.87,75.0,6.42,12.73,47.59359,-54.27349
2021-11-05 20:54:01+00:00,80.0,5.6,76.0,6.6,12.73,47.59359,-54.27349
2021-11-05 21:04:01+00:00,75.0,5.44,73.0,6.7,12.73,47.59359,-54.27349
2021-11-05 21:14:01+00:00,64.0,5.07,64.0,5.8,12.65,47.59359,-54.27349
2021-11-05 21:24:01+00:00,66.0,4.72,72.0,5.72,12.65,47.59359,-54.27349
2021-11-05 21:34:01+00:00,54.0,4.3,55.0,5.23,12.65,47.59359,-54.27349
2021-11-05 21:44:01+00:00,68.0,4.34,70.0,5.12,12.65,47.59359,-54.27349
2021-11-05 21:54:01+00:00,60.0,5.17,58.0,6.17,12.65,47.59359,-54.27349
2021-11-05 22:04:01+00:00,65.0,4.78,62.0,5.81,12.65,47.59359,-54.27349
2021-11-05 22:14:01+00:00,67.0,5.48,67.0,6.42,12.57,47.59359,-54.27349
2021-11-05 22:24:01+00:00,82.0,4.68,74.0,6.41,12.57,47.59359,-54.27349
2021-11-05 22:34:01+00:00,82.0,4.07,93.0,6.36,12.57,47.59359,-54.27349
2021-11-05 22:44:01+00:00,71.0,4.52,88.0,6.37,12.57,47.59359,-54.27349
2021-11-05 22:54:01+00:00,79.0,4.27,91.0,6.27,12.57,47.59359,-54.27349
2021-11-05 23:04:01+00:00,94.0,4.5,108.0,6.7,12.57,47.59359,-54.27349
2021-11-05 23:14:01+00:00,116.0,5.63,119.0,7.88,12.57,47.59359,-54.27349
2021-11-05 23:24:01+00:00,112.0,4.8,121.0,7.26,12.57,47.59359,-54.27349
2021-11-05 23:34:01+00:00,127.0,5.94,133.0,8.55,12.57,47.59359,-54.27349
2021-11-05 23:44:01+00:00,119.0,5.92,118.0,7.48,12.57,47.59359,-54.27349
2021-11-05 23:54:01+00:00,107.0,3.78,132.0,6.43,12.57,47.59359,-54.27349
